| time (UTC) | temp F | wind direction | speed MPH | gust MPH | rain 1hr in | rain 24hr in | rain mn in | humidity % | barometer mb |
| 20260504173308 | 66 | 280 | 5.0 | 0.0 | 0.00 | 0.00 | 0.00 | 35 | 1015.0 |
| 20260504171808 | 72 | 300 | 5.0 | 0.0 | 0.00 | 0.00 | 0.00 | 27 | 1015.0 |
| 20260504170308 | 72 | 300 | 5.0 | 0.0 | 0.00 | 0.00 | 0.00 | 27 | 1015.0 |
| 20260504160309 | 73 | 330 | 8.0 | 0.0 | 0.00 | 0.00 | 0.00 | 25 | 1015.0 |
| 20260504150308 | 75 | 340 | 9.0 | 0.0 | 0.00 | 0.00 | 0.00 | 24 | 1015.0 |
| 20260504140309 | 75 | 290 | 10.0 | 0.0 | 0.00 | 0.00 | 0.00 | 24 | 1016.0 |
| 20260504130308 | 75 | 330 | 9.0 | 0.0 | 0.00 | 0.00 | 0.00 | 25 | 1016.0 |
| 20260504120308 | 73 | 280 | 10.0 | 0.0 | 0.00 | 0.00 | 0.00 | 25 | 1017.0 |
| 20260504110308 | 73 | 300 | 11.0 | 0.0 | 0.00 | 0.00 | 0.00 | 25 | 1018.0 |
| 20260504100308 | 72 | 330 | 11.0 | 0.0 | 0.00 | 0.00 | 0.00 | 25 | 1018.0 |
| 20260504081808 | 68 | 340 | 10.0 | 0.0 | 0.00 | 0.00 | 0.00 | 30 | 1019.0 |
| 20260504080307 | 68 | 340 | 10.0 | 0.0 | 0.00 | 0.00 | 0.00 | 30 | 1019.0 |
| 20260504070309 | 64 | 270 | 9.0 | 0.0 | 0.00 | 0.00 | 0.00 | 37 | 1019.0 |
| 20260504050318 | 50 | 250 | 10.0 | 0.0 | 0.00 | 0.00 | 0.00 | 58 | 1019.0 |
| 20260504044808 | 46 | 260 | 8.0 | 0.0 | 0.00 | 0.00 | 0.00 | 66 | 1019.0 |
| 20260504043308 | 46 | 260 | 8.0 | 0.0 | 0.00 | 0.00 | 0.00 | 66 | 1019.0 |
| 20260504041808 | 45 | 280 | 6.0 | 0.0 | 0.00 | 0.00 | 0.00 | 66 | 1019.0 |
| 20260504040308 | 45 | 280 | 6.0 | 0.0 | 0.00 | 0.00 | 0.00 | 66 | 1019.0 |
| 20260504034808 | 43 | 280 | 8.0 | 0.0 | 0.00 | 0.00 | 0.00 | 71 | 1019.0 |
| 20260504033308 | 43 | 280 | 8.0 | 0.0 | 0.00 | 0.00 | 0.00 | 71 | 1019.0 |
| 20260504031808 | 43 | 280 | 7.0 | 0.0 | 0.00 | 0.00 | 0.00 | 71 | 1019.0 |
| 20260504030423 | 43 | 280 | 7.0 | 0.0 | 0.00 | 0.00 | 0.00 | 71 | 1019.0 |
| 20260504024809 | 43 | 280 | 7.0 | 0.0 | 0.00 | 0.00 | 0.00 | 71 | 1019.0 |
| 20260504023308 | 43 | 280 | 7.0 | 0.0 | 0.00 | 0.00 | 0.00 | 71 | 1019.0 |
| 20260504021807 | 45 | 280 | 7.0 | 0.0 | 0.00 | 0.00 | 0.00 | 66 | 1019.0 |
| 20260504020308 | 45 | 280 | 7.0 | 0.0 | 0.00 | 0.00 | 0.00 | 66 | 1019.0 |
| 20260504014808 | 43 | 280 | 8.0 | 0.0 | 0.00 | 0.00 | 0.00 | 71 | 1019.0 |
| 20260504013313 | 43 | 280 | 8.0 | 0.0 | 0.00 | 0.00 | 0.00 | 71 | 1019.0 |
| 20260504011923 | 45 | 290 | 7.0 | 0.0 | 0.00 | 0.00 | 0.00 | 66 | 1019.0 |
| 20260504010308 | 45 | 290 | 7.0 | 0.0 | 0.00 | 0.00 | 0.00 | 66 | 1019.0 |
| 20260504004923 | 45 | 270 | 6.0 | 0.0 | 0.00 | 0.00 | 0.00 | 66 | 1019.0 |
| 20260504003308 | 45 | 270 | 6.0 | 0.0 | 0.00 | 0.00 | 0.00 | 66 | 1019.0 |
| 20260504001808 | 46 | 280 | 7.0 | 0.0 | 0.00 | 0.00 | 0.00 | 62 | 1019.0 |
| 20260504000308 | 46 | 280 | 7.0 | 0.0 | 0.00 | 0.00 | 0.00 | 62 | 1019.0 |
| 20260503234847 | 46 | 260 | 8.0 | 0.0 | 0.00 | 0.00 | 0.00 | 62 | 1019.0 |
| 20260503233308 | 46 | 260 | 8.0 | 0.0 | 0.00 | 0.00 | 0.00 | 62 | 1019.0 |
| 20260503231811 | 46 | 270 | 7.0 | 0.0 | 0.00 | 0.00 | 0.00 | 62 | 1019.0 |
| 20260503230320 | 46 | 270 | 7.0 | 0.0 | 0.00 | 0.00 | 0.00 | 62 | 1019.0 |
| 20260503224808 | 46 | 290 | 5.0 | 0.0 | 0.00 | 0.00 | 0.00 | 62 | 1019.0 |
| 20260503223320 | 46 | 290 | 5.0 | 0.0 | 0.00 | 0.00 | 0.00 | 62 | 1019.0 |
| 20260503221824 | 46 | 280 | 6.0 | 0.0 | 0.00 | 0.00 | 0.00 | 66 | 1019.0 |
| 20260503220350 | 46 | 280 | 6.0 | 0.0 | 0.00 | 0.00 | 0.00 | 66 | 1019.0 |
| 20260503214815 | 46 | 270 | 5.0 | 0.0 | 0.00 | 0.00 | 0.00 | 66 | 1019.0 |
| 20260503213308 | 46 | 270 | 5.0 | 0.0 | 0.00 | 0.00 | 0.00 | 66 | 1019.0 |
| 20260503211808 | 48 | 280 | 7.0 | 0.0 | 0.00 | 0.00 | 0.00 | 62 | 1019.0 |
| 20260503210308 | 48 | 280 | 7.0 | 0.0 | 0.00 | 0.00 | 0.00 | 62 | 1019.0 |
| 20260503204815 | 46 | 270 | 3.0 | 0.0 | 0.00 | 0.00 | 0.00 | 66 | 1019.0 |
| 20260503203423 | 46 | 270 | 3.0 | 0.0 | 0.00 | 0.00 | 0.00 | 66 | 1019.0 |
| 20260503201808 | 46 | 1.0 | 0.0 | 0.00 | 0.00 | 0.00 | 66 | 1019.0 | |
| 20260503200317 | 46 | 1.0 | 0.0 | 0.00 | 0.00 | 0.00 | 66 | 1019.0 | |
| 20260503194833 | 48 | 260 | 5.0 | 0.0 | 0.00 | 0.00 | 0.00 | 62 | 1019.0 |
| 20260503193423 | 48 | 260 | 5.0 | 0.0 | 0.00 | 0.00 | 0.00 | 62 | 1019.0 |
| 20260503191808 | 50 | 290 | 1.0 | 0.0 | 0.00 | 0.00 | 0.00 | 58 | 1019.0 |
| 20260503190308 | 50 | 290 | 1.0 | 0.0 | 0.00 | 0.00 | 0.00 | 58 | 1019.0 |
| 20260503184922 | 48 | 2.0 | 0.0 | 0.00 | 0.00 | 0.00 | 66 | 1019.0 | |
| 20260503183307 | 48 | 2.0 | 0.0 | 0.00 | 0.00 | 0.00 | 66 | 1019.0 | |
| 20260503181808 | 54 | 0 | 0.0 | 0.0 | 0.00 | 0.00 | 0.00 | 51 | 1018.0 |
| 20260503180307 | 54 | 0 | 0.0 | 0.0 | 0.00 | 0.00 | 0.00 | 51 | 1018.0 |
| 20260503174828 | 59 | 1.0 | 0.0 | 0.00 | 0.00 | 0.00 | 42 | 1018.0 |